Location: Newark
(13.6797°N, 8.5297°E)
Time: 15:38:59
(UTC+00:00)

Courier 1B Rocket - Pass Details

Date: 19 January 2020
Orbit: 920 x 1202 km, 28.2° (Epoch: 24 February)

Event Time Altitude Azimuth Distance (km) Brightness Sun altitude
Rises 09:19:04 0° 219° (SW) 4,000 8.3 42.0°
Reaches altitude 10° 09:22:19 10° 209° (SSW) 2,999 7.8 42.6°
Maximum altitude 09:28:37 31° 150° (SSE) 1,799 8.3 43.6°
Drops below altitude 10° 09:34:34 10° 91° (E) 2,819 8.0 44.6°
Sets 09:37:30 0° 80° (E) 3,725 8.4 45.1°
